Weather History for Olympia, WA

Change the Weather History Date:

Tuesday, July 2, 2013

  Actual Average Record
Temperature  
Mean Temperature 69 °F 62 °F  
Max Temperature 81 °F 74 °F 93 °F (1968)
Min Temperature 56 °F 50 °F 36 °F (1962)
Degree Days  
Heating Degree Days 0 4  
Month to date heating degree days 0 8  
Since 1 June heating degree days 136 196  
Since 1 July heating degree days 0 8  
Cooling Degree Days 4 1  
Month to date cooling degree days 13 2  
Year to date cooling degree days 41 16  
Since 1 June cooling degree days 39 13  
Growing Degree Days 19 (Base 50)    
Moisture  
Dew Point 57 °F    
Average Humidity 68    
Maximum Humidity 93    
Minimum Humidity 42    
Precipitation  
Precipitation 0.00 in 0.03 in 0.60 in (1966)
Month to date precipitation 0.00 0.06  
Year to date precipitation 21.42 26.09  
Sea Level Pressure  
Sea Level Pressure 30.09 in    
Wind  
Wind Speed 3 mph (ENE)    
Max Wind Speed 9 mph    
Max Gust Speed 14 mph    
Visibility 10 miles    
Events      
T = Trace of Precipitation, MM = Missing Value Source: NWS Daily Summary

Daily Weather History Graph

Daily Weather History Graph

Search for Another Location

Airport:

Trip Planner

Search our weather history database for the weather conditions in past years. The results will help you decide how hot, cold, wet, or windy it might be!

Date:

Astronomy

Jul. 02, 2013 Rise Set
Actual Time 5:21 AM PDT 9:09 PM PDT
Civil Twilight 4:42 AM PDT 9:49 PM PDT
Nautical Twilight 3:48 AM PDT 10:42 PM PDT
Astronomical Twilight 2:30 AM PDT 11:59 PM PDT
Moon 1:38 AM PDT (7/2) 4:19 PM PDT (7/2)
Length of Visible Light 17h 06m
Length of Day
15h 48m
Waning Crescent, 25% of the Moon is Illuminated
Jul 2
Waning Crescent
Jul 8
New
Jul 15
First Quarter
Jul 22
Full
Jul 29
Last Quarter

Hourly Weather History & Observations

Time (PDT) Temp. Heat Index Dew Point Humidity Pressure Visibility Wind Dir Wind Speed Gust Speed Precip Events Conditions
12:54 AM 61.0 °F - 55.9 °F 83% 30.07 in 10.0 mi South 4.6 mph - N/A   Clear
1:54 AM 59.0 °F - 55.9 °F 90% 30.08 in 10.0 mi South 4.6 mph - N/A   Clear
2:54 AM 57.9 °F - 55.0 °F 90% 30.09 in 10.0 mi Calm Calm - N/A   Clear
3:54 AM 57.0 °F - 55.0 °F 93% 30.08 in 10.0 mi Calm Calm - N/A   Clear
4:41 AM 57.0 °F - 55.0 °F 93% 30.09 in 10.0 mi Calm Calm - N/A   Mostly Cloudy
4:50 AM 57.2 °F - 55.4 °F 94% 30.08 in 10.0 mi Calm Calm - N/A   Overcast
4:54 AM 57.0 °F - 55.0 °F 93% 30.08 in 10.0 mi Calm Calm - N/A   Overcast
5:54 AM 57.0 °F - 55.9 °F 96% 30.09 in 10.0 mi South 3.5 mph - N/A   Overcast
7:54 AM 57.9 °F - 55.9 °F 93% 30.12 in 10.0 mi Calm Calm - N/A   Overcast
8:54 AM 59.0 °F - 55.9 °F 90% 30.12 in 10.0 mi Calm Calm - N/A   Overcast
9:54 AM 60.1 °F - 57.0 °F 90% 30.12 in 10.0 mi SE 3.5 mph - N/A   Overcast
10:54 AM 62.1 °F - 57.0 °F 84% 30.12 in 10.0 mi Calm Calm - N/A   Overcast
11:54 AM 66.0 °F - 57.9 °F 75% 30.12 in 10.0 mi North 3.5 mph - N/A   Overcast
12:21 PM 66.0 °F - 57.9 °F 75% 30.12 in 10.0 mi Variable 4.6 mph - N/A   Mostly Cloudy
12:54 PM 66.0 °F - 59.0 °F 78% 30.12 in 10.0 mi East 3.5 mph - N/A   Mostly Cloudy
1:39 PM 72.0 °F - 59.0 °F 64% 30.12 in 10.0 mi North 4.6 mph - N/A   Scattered Clouds
1:54 PM 72.0 °F - 59.0 °F 64% 30.12 in 10.0 mi Variable 4.6 mph - N/A   Scattered Clouds
2:54 PM 75.0 °F - 60.1 °F 60% 30.12 in 10.0 mi Calm Calm - N/A   Partly Cloudy
3:54 PM 78.1 °F - 61.0 °F 56% 30.11 in 10.0 mi North 5.8 mph - N/A   Partly Cloudy
4:54 PM 80.1 °F 81.1 °F 61.0 °F 52% 30.09 in 10.0 mi NNE 6.9 mph - N/A   Partly Cloudy
5:54 PM 81.0 °F 81.1 °F 57.9 °F 45% 30.08 in 10.0 mi NNE 5.8 mph - N/A   Partly Cloudy
6:54 PM 81.0 °F 80.8 °F 55.9 °F 42% 30.06 in 10.0 mi NNE 6.9 mph - N/A   Partly Cloudy
7:54 PM 80.1 °F 80.4 °F 57.0 °F 45% 30.05 in 10.0 mi North 6.9 mph - N/A   Clear
8:54 PM 73.9 °F - 59.0 °F 59% 30.04 in 10.0 mi NNW 4.6 mph - N/A   Clear
9:54 PM 68.0 °F - 60.1 °F 76% 30.06 in 10.0 mi SSW 5.8 mph - N/A   Clear
10:54 PM 64.9 °F - 57.0 °F 75% 30.07 in 10.0 mi South 4.6 mph - N/A   Clear
11:54 PM 62.1 °F - 55.0 °F 78% 30.09 in 10.0 mi SSE 4.6 mph - N/A   Clear